FW8806 Weather Reports


time (UTC)temp
C
wind
direction
speed
KPH
gust
KPH
rain 1hr
cm
rain 24hr
cm
rain mn
cm
humidity
%
barometer
mb
20260507162024 18 229 8.0 11.3 0.00 0.00 0.00 72 1017.0
20260507161520 18 168 4.8 11.3 0.00 0.00 0.00 73 1016.7
20260507161017 18 205 8.0 14.5 0.00 0.00 0.00 74 1016.8
20260507160513 18 218 4.8 11.3 0.00 0.00 0.00 74 1017.1
20260507160010 18 272 8.0 11.3 0.00 0.00 0.00 74 1017.2
20260507155505 18 218 8.0 11.3 0.00 0.00 0.00 74 1016.9
20260507155003 17 29 4.8 11.3 0.00 0.00 0.00 75 1017.0
20260507154459 17 247 6.4 11.3 0.00 0.00 0.00 76 1017.0
20260507153956 17 205 4.8 9.7 0.00 0.00 0.00 77 1017.3
20260507153453 17 222 4.8 9.7 0.00 0.00 0.00 77 1017.1
20260507152949 17 255 3.2 9.7 0.00 0.00 0.00 78 1017.2
20260507152445 17 1 3.2 8.0 0.00 0.00 0.00 78 1017.2
20260507151941 17 255 3.2 9.7 0.00 0.00 0.00 78 1017.2
20260507151438 17 145 3.2 4.8 0.00 0.00 0.00 75 1017.2
20260507150935 16 87 0.0 3.2 0.00 0.00 0.00 76 1017.1
20260507150432 17 94 0.0 3.2 0.00 0.00 0.00 75 1017.1
20260507145928 16 121 1.6 1.6 0.00 0.00 0.00 77 1017.2
20260507145424 16 97 0.0 0.0 0.00 0.00 0.00 79 1017.3
20260507144921 16 95 0.0 1.6 0.00 0.00 0.00 80 1017.2
20260507144418 15 98 1.6 1.6 0.00 0.00 0.00 83 1017.3
20260507143915 14 97 0.0 0.0 0.00 0.00 0.00 87 1017.0
20260507143412 13 95 0.0 0.0 0.00 0.00 0.00 89 1016.9
20260507142909 13 93 0.0 0.0 0.00 0.00 0.00 91 1017.1
20260507142404 12 92 0.0 0.0 0.00 0.00 0.00 92 1017.0
20260507141902 12 232 0.0 0.0 0.00 0.00 0.00 92 1017.2
20260507141358 12 232 0.0 0.0 0.00 0.00 0.00 93 1016.9
20260507140854 12 231 0.0 0.0 0.00 0.00 0.00 93 1017.1
20260507140351 12 232 0.0 0.0 0.00 0.00 0.00 93 1016.9
20260507135849 12 233 0.0 0.0 0.00 0.00 0.00 93 1016.9
20260507135346 12 234 1.6 4.8 0.00 0.00 0.00 94 1016.7
20260507134843 12 228 0.0 8.0 0.00 0.00 0.00 95 1016.9
20260507134339 11 227 0.0 0.0 0.00 0.00 0.00 95 1016.7
20260507133835 11 227 0.0 0.0 0.00 0.00 0.00 95 1016.8
20260507133331 11 226 0.0 0.0 0.00 0.00 0.00 95 1016.8
20260507132830 11 226 0.0 0.0 0.00 0.00 0.00 95 1016.8
20260507132325 11 225 0.0 0.0 0.00 0.00 0.00 95 1016.9
20260507131823 11 223 0.0 0.0 0.00 0.00 0.00 95 1016.7
20260507131319 10 225 0.0 0.0 0.00 0.00 0.00 95 1016.8
20260507130816 10 224 0.0 1.6 0.00 0.00 0.00 95 1016.8
20260507130314 10 229 0.0 0.0 0.00 0.00 0.00 95 1016.7
20260507125813 10 229 1.6 3.2 0.00 0.00 0.00 95 1016.5
20260507125309 10 226 0.0 0.0 0.00 0.00 0.00 95 1016.3
20260507124807 10 229 0.0 0.0 0.00 0.00 0.00 95 1016.3
20260507124303 10 227 0.0 0.0 0.00 0.00 0.00 95 1016.2
20260507123802 10 225 1.6 3.2 0.00 0.00 0.00 95 1016.5
20260507123259 10 224 0.0 0.0 0.00 0.00 0.00 95 1016.4
20260507122754 10 224 0.0 0.0 0.00 0.00 0.00 95 1016.5
20260507122250 10 225 0.0 1.6 0.00 0.00 0.00 95 1016.4
20260507121746 10 222 0.0 0.0 0.00 0.00 0.00 95 1016.4
20260507121242 10 228 0.0 0.0 0.00 0.00 0.00 95 1016.6
20260507120738 10 225 0.0 0.0 0.00 0.00 0.00 95 1016.5
20260507120235 10 223 0.0 0.0 0.00 0.00 0.00 95 1016.3
20260507115731 10 224 0.0 0.0 0.00 0.00 0.00 95 1016.6
20260507115227 10 224 0.0 0.0 0.00 0.00 0.00 95 1016.4
20260507114723 10 223 0.0 0.0 0.00 0.00 0.00 95 1016.5
20260507114221 11 224 0.0 1.6 0.00 0.00 0.00 95 1016.3
20260507113718 11 222 0.0 0.0 0.00 0.00 0.00 95 1016.6
20260507113215 11 223 3.2 3.2 0.00 0.00 0.00 95 1016.7
20260507112712 11 223 0.0 0.0 0.00 0.00 0.00 95 1016.8
20260507112209 11 224 0.0 1.6 0.00 0.00 0.00 94 1016.8
20260507111706 11 225 0.0 0.0 0.00 0.00 0.00 94 1016.8
20260507111203 11 226 0.0 0.0 0.00 0.00 0.00 94 1016.9
20260507110659 11 240 0.0 0.0 0.00 0.00 0.00 94 1016.8
20260507110156 11 248 0.0 0.0 0.00 0.00 0.00 94 1016.8
20260507105653 11 249 1.6 3.2 0.00 0.00 0.00 94 1017.0
20260507105149 11 247 0.0 0.0 0.00 0.00 0.00 94 1017.0
20260507104647 11 247 0.0 0.0 0.00 0.00 0.00 94 1016.8
20260507104142 11 247 1.6 1.6 0.00 0.00 0.00 94 1016.8
20260507103639 11 247 1.6 1.6 0.00 0.00 0.00 94 1016.9
20260507103136 11 253 1.6 1.6 0.00 0.00 0.00 94 1016.9
20260507102632 11 283 1.6 1.6 0.00 0.00 0.00 94 1017.2
20260507102128 11 285 0.0 0.0 0.00 0.00 0.00 94 1017.1
20260507101624 11 276 1.6 3.2 0.00 0.00 0.00 94 1017.1
20260507101120 11 269 1.6 3.2 0.00 0.00 0.00 93 1017.1
20260507100618 11 280 1.6 3.2 0.00 0.00 0.00 93 1017.2
20260507100116 11 284 0.0 1.6 0.00 0.00 0.00 93 1017.2
20260507095614 11 260 1.6 3.2 0.00 0.00 0.00 93 1017.5
20260507095110 11 261 3.2 3.2 0.00 0.00 0.00 93 1017.2
20260507094606 11 278 1.6 3.2 0.00 0.00 0.00 93 1017.2
20260507094103 11 280 1.6 1.6 0.00 0.00 0.00 93 1017.1
20260507093601 11 276 1.6 1.6 0.00 0.00 0.00 93 1017.3
20260507093059 11 282 1.6 1.6 0.00 0.00 0.00 93 1017.2
20260507092555 11 270 3.2 3.2 0.00 0.00 0.00 93 1017.2
20260507092052 11 281 1.6 3.2 0.00 0.00 0.00 93 1017.4
20260507091549 11 280 1.6 3.2 0.00 0.00 0.00 92 1017.4
20260507091045 11 270 1.6 3.2 0.00 0.00 0.00 92 1017.3
20260507090541 11 290 0.0 1.6 0.00 0.00 0.00 92 1017.6
20260507090038 11 280 1.6 1.6 0.00 0.00 0.00 92 1017.6
20260507085535 11 270 3.2 3.2 0.00 0.00 0.00 92 1017.3
20260507085032 11 277 1.6 3.2 0.00 0.00 0.00 91 1017.6
20260507084528 12 286 0.0 1.6 0.00 0.00 0.00 91 1017.5
20260507084025 12 286 1.6 1.6 0.00 0.00 0.00 91 1017.7
20260507083521 12 284 1.6 1.6 0.00 0.00 0.00 90 1017.7
20260507083019 12 275 1.6 3.2 0.00 0.00 0.00 90 1017.7
20260507082515 12 281 1.6 1.6 0.00 0.00 0.00 90 1017.7
20260507082011 12 282 1.6 3.2 0.00 0.00 0.00 90 1017.8
20260507081507 12 287 0.0 1.6 0.00 0.00 0.00 89 1017.8
20260507081004 12 277 1.6 1.6 0.00 0.00 0.00 89 1017.9
20260507080500 12 273 3.2 3.2 0.00 0.00 0.00 89 1017.8
20260507075955 12 260 3.2 3.2 0.00 0.00 0.00 89 1017.8
20260507075452 12 278 1.6 3.2 0.00 0.00 0.00 89 1017.9
20260507074949 13 198 3.2 4.8 0.00 0.00 0.00 88 1017.7
20260507074446 12 228 4.8 4.8 0.00 0.00 0.00 90 1017.7
20260507073944 12 258 3.2 3.2 0.00 0.00 0.00 89 1017.9
20260507073440 12 242 3.2 3.2 0.00 0.00 0.00 89 1017.8
20260507072936 12 277 1.6 3.2 0.00 0.00 0.00 89 1018.1
20260507072434 12 266 3.2 3.2 0.00 0.00 0.00 89 1018.0
20260507071931 12 282 1.6 3.2 0.00 0.00 0.00 88 1018.1
20260507071428 12 255 3.2 4.8 0.00 0.00 0.00 88 1018.0
20260507070925 12 253 1.6 3.2 0.00 0.00 0.00 88 1018.0
20260507070423 12 280 1.6 3.2 0.00 0.00 0.00 88 1018.0
20260507065919 12 273 1.6 3.2 0.00 0.00 0.00 87 1018.1
20260507065416 13 273 1.6 1.6 0.00 0.00 0.00 87 1018.1
20260507064913 13 243 3.2 3.2 0.00 0.00 0.00 87 1018.0
20260507064411 13 248 3.2 3.2 0.00 0.00 0.00 88 1018.3
20260507063909 13 278 1.6 3.2 0.00 0.00 0.00 87 1018.0
20260507063406 13 244 3.2 3.2 0.00 0.00 0.00 87 1018.1
20260507062903 13 250 3.2 3.2 0.00 0.00 0.00 87 1018.0
20260507062359 13 281 0.0 1.6 0.00 0.00 0.00 87 1018.0
20260507061857 13 274 1.6 3.2 0.00 0.00 0.00 86 1017.9
20260507061355 13 283 1.6 3.2 0.00 0.00 0.00 86 1018.0
20260507060853 13 280 1.6 1.6 0.00 0.00 0.00 86 1018.0
20260507060349 13 254 3.2 3.2 0.00 0.00 0.00 86 1018.0
20260507055846 13 281 1.6 3.2 0.00 0.00 0.00 86 1018.0
20260507055341 13 282 0.0 1.6 0.00 0.00 0.00 86 1017.9
20260507054838 13 261 1.6 4.8 0.00 0.00 0.00 86 1018.0
20260507054334 13 271 1.6 3.2 0.00 0.00 0.00 85 1018.0
20260507053832 13 277 1.6 1.6 0.00 0.00 0.00 84 1018.1
20260507053329 15 283 0.0 1.6 0.00 0.00 0.00 84 1018.0
20260507052828 15 280 1.6 1.6 0.00 0.00 0.00 84 1018.3
20260507052324 15 262 3.2 4.8 0.00 0.00 0.00 84 1018.2
20260507051822 15 261 3.2 4.8 0.00 0.00 0.00 85 1018.0
20260507051320 14 216 4.8 8.0 0.00 0.00 0.00 85 1018.2
20260507050816 15 241 6.4 9.7 0.00 0.00 0.00 85 1018.2
20260507050312 15 257 4.8 8.0 0.00 0.00 0.00 85 1018.0
20260507045810 15 246 3.2 8.0 0.00 0.00 0.00 85 1018.0
20260507045307 15 150 6.4 9.7 0.00 0.00 0.00 84 1018.0
20260507044803 15 181 4.8 8.0 0.00 0.00 0.00 84 1018.0
20260507044259 15 232 3.2 11.3 0.00 0.00 0.00 84 1017.8
20260507043755 15 213 8.0 11.3 0.00 0.00 0.00 83 1017.8
20260507043252 15 248 6.4 11.3 0.00 0.00 0.00 83 1017.8
20260507042749 15 222 6.4 9.7 0.00 0.00 0.00 83 1017.6
20260507042244 15 182 4.8 11.3 0.00 0.00 0.00 82 1017.7
20260507041742 15 223 8.0 12.9 0.00 0.00 0.00 81 1017.6
20260507041238 15 242 8.0 12.9 0.00 0.00 0.00 81 1017.7
20260507040735 15 249 6.4 11.3 0.00 0.00 0.00 80 1017.8
20260507040231 15 273 9.7 16.1 0.00 0.00 0.00 79 1017.7
20260507035727 15 214 6.4 14.5 0.00 0.00 0.00 79 1017.7
20260507035223 15 276 8.0 11.3 0.00 0.00 0.00 78 1017.5
20260507034720 15 172 14.5 17.7 0.00 0.00 0.00 77 1017.5
20260507034217 15 169 6.4 14.5 0.00 0.00 0.00 77 1017.3
20260507033716 16 203 8.0 16.1 0.00 0.00 0.00 76 1017.1
20260507033213 16 123 9.7 14.5 0.00 0.00 0.00 75 1017.2
20260507032710 16 252 8.0 14.5 0.00 0.00 0.00 74 1017.0
20260507032206 16 145 8.0 14.5 0.00 0.00 0.00 73 1017.1
20260507031703 16 213 8.0 12.9 0.00 0.00 0.00 73 1016.9
20260507031159 16 216 9.7 16.1 0.00 0.00 0.00 72 1016.9
20260507030656 16 159 4.8 12.9 0.00 0.00 0.00 71 1016.9
20260507030154 16 233 4.8 12.9 0.00 0.00 0.00 70 1017.0
20260507025651 17 232 11.3 14.5 0.00 0.00 0.00 69 1016.9
20260507025148 17 263 6.4 14.5 0.00 0.00 0.00 69 1016.9
20260507024646 17 45 6.4 11.3 0.00 0.00 0.00 68 1016.8
20260507024143 17 224 4.8 12.9 0.00 0.00 0.00 67 1016.8
20260507023638 17 237 8.0 11.3 0.00 0.00 0.00 66 1016.7
20260507023136 17 243 4.8 16.1 0.00 0.00 0.00 66 1016.8
20260507022633 18 172 11.3 14.5 0.00 0.00 0.00 66 1016.7
20260507022128 18 235 9.7 14.5 0.00 0.00 0.00 65 1016.6
20260507021625 18 250 9.7 16.1 0.00 0.00 0.00 65 1016.6
20260507021120 18 193 11.3 16.1 0.00 0.00 0.00 64 1016.3
20260507020619 18 199 4.8 22.5 0.00 0.00 0.00 64 1016.3
20260507020115 18 59 8.0 20.9 0.00 0.00 0.00 64 1016.4
20260507015614 18 164 11.3 20.9 0.00 0.00 0.00 64 1016.3
20260507015111 18 204 4.8 25.7 0.00 0.00 0.00 64 1016.1
20260507014607 19 237 12.9 22.5 0.00 0.00 0.00 64 1016.1
20260507014103 19 199 8.0 22.5 0.00 0.00 0.00 64 1016.1
20260507013600 19 245 6.4 17.7 0.00 0.00 0.00 64 1016.1
20260507013057 19 178 4.8 17.7 0.00 0.00 0.00 63 1016.1
20260507012554 20 57 8.0 20.9 0.00 0.00 0.00 63 1016.0
20260507012049 20 223 11.3 16.1 0.00 0.00 0.00 63 1015.7
20260507011548 20 237 11.3 16.1 0.00 0.00 0.00 63 1015.8
20260507011044 20 154 4.8 22.5 0.00 0.00 0.00 62 1016.0
20260507010538 20 190 11.3 17.7 0.00 0.00 0.00 61 1015.8
20260507010035 21 208 9.7 20.9 0.00 0.00 0.00 61 1016.0
20260507005533 21 221 14.5 17.7 0.00 0.00 0.00 62 1015.8
20260507005028 21 213 9.7 22.5 0.00 0.00 0.00 61 1015.6
20260507004526 21 201 8.0 16.1 0.00 0.00 0.00 61 1015.7
20260507004023 21 210 4.8 24.1 0.00 0.00 0.00 61 1015.6
20260507003519 21 233 9.7 14.5 0.00 0.00 0.00 61 1015.6
20260507003014 21 75 9.7 14.5 0.00 0.00 0.00 60 1015.7
20260507002510 21 139 8.0 17.7 0.00 0.00 0.00 61 1015.6
20260507002007 22 268 14.5 24.1 0.00 0.00 0.00 60 1015.5
20260507001503 22 355 9.7 16.1 0.00 0.00 0.00 60 1015.6
20260507001001 22 196 8.0 17.7 0.00 0.00 0.00 59 1015.3
20260507000456 22 128 11.3 17.7 0.00 0.00 0.00 59 1015.2
20260506235952 22 119 8.0 14.5 0.00 0.00 0.00 59 1015.2
20260506235450 22 197 11.3 16.1 0.00 0.00 0.00 58 1015.2
20260506234946 23 254 8.0 17.7 0.00 0.00 0.00 58 1015.3
20260506234443 22 140 6.4 16.1 0.00 0.00 0.00 58 1015.4
20260506233941 22 258 9.7 20.9 0.00 0.00 0.00 58 1015.1
20260506233437 22 229 6.4 25.7 0.00 0.00 0.00 59 1015.2
20260506232934 22 211 8.0 16.1 0.00 0.00 0.00 59 1015.3
20260506232430 23 85 4.8 16.1 0.00 0.00 0.00 58 1015.2
20260506231926 23 98 8.0 17.7 0.00 0.00 0.00 58 1015.2
20260506231423 23 172 11.3 29.0 0.00 0.00 0.00 58 1015.3
20260506230920 23 123 14.5 22.5 0.00 0.00 0.00 58 1015.3
20260506230417 23 249 9.7 11.3 0.00 0.00 0.00 58 1015.2
20260506225913 23 145 4.8 17.7 0.00 0.00 0.00 58 1015.3
20260506225411 23 174 6.4 16.1 0.00 0.00 0.00 58 1015.5
20260506224908 23 176 9.7 17.7 0.00 0.00 0.00 58 1015.4
20260506224405 23 117 4.8 12.9 0.00 0.00 0.00 58 1015.6
20260506223901 23 297 8.0 12.9 0.00 0.00 0.00 58 1015.4
20260506223356 23 134 4.8 12.9 0.00 0.00 0.00 58 1015.6
20260506222854 23 257 8.0 20.9 0.00 0.00 0.00 58 1015.8
20260506222350 23 102 4.8 12.9 0.00 0.00 0.00 57 1015.7
20260506221848 23 245 11.3 24.1 0.00 0.00 0.00 57 1015.8
20260506221344 23 248 3.2 14.5 0.00 0.00 0.00 56 1015.8
20260506220842 23 232 9.7 17.7 0.00 0.00 0.00 56 1015.8
20260506220337 23 188 11.3 17.7 0.00 0.00 0.00 55 1015.8
20260506215834 23 243 9.7 16.1 0.00 0.00 0.00 56 1016.0
20260506215330 24 212 9.7 12.9 0.00 0.00 0.00 54 1016.0
20260506214826 23 185 12.9 22.5 0.00 0.00 0.00 54 1016.3
20260506214323 24 51 4.8 16.1 0.00 0.00 0.00 54 1016.3
20260506213822 24 83 4.8 12.9 0.00 0.00 0.00 54 1016.2
20260506213319 25 197 11.3 14.5 0.00 0.00 0.00 54 1016.3
20260506212816 24 41 4.8 12.9 0.00 0.00 0.00 52 1016.4
20260506212311 25 264 6.4 11.3 0.00 0.00 0.00 52 1016.5
20260506211806 25 67 4.8 12.9 0.00 0.00 0.00 52 1016.2
20260506211303 24 10 1.6 8.0 0.00 0.00 0.00 50 1016.4
20260506210801 25 251 11.3 14.5 0.00 0.00 0.00 48 1016.5
20260506210257 25 69 1.6 8.0 0.00 0.00 0.00 45 1016.4
20260506205754 26 72 4.8 8.0 0.00 0.00 0.00 43 1016.5
20260506205250 26 227 8.0 9.7 0.00 0.00 0.00 41 1016.5
20260506204747 25 349 1.6 3.2 0.00 0.00 0.00 42 1016.5
20260506204244 26 327 1.6 4.8 0.00 0.00 0.00 41 1016.6
20260506203742 26 9 1.6 8.0 0.00 0.00 0.00 42 1016.7
20260506203239 26 344 4.8 4.8 0.00 0.00 0.00 40 1016.9
20260506202736 25 343 0.0 1.6 0.00 0.00 0.00 42 1016.9
20260506202233 25 283 1.6 8.0 0.00 0.00 0.00 43 1016.9
20260506201730 25 121 3.2 4.8 0.00 0.00 0.00 43 1017.0
20260506201226 25 42 0.0 8.0 0.00 0.00 0.00 43 1016.9
20260506200723 25 3 8.0 11.3 0.00 0.00 0.00 43 1017.1
20260506200220 25 338 1.6 1.6 0.00 0.00 0.00 45 1017.0
20260506195716 25 19 8.0 9.7 0.00 0.00 0.00 44 1017.3
20260506195212 24 338 0.0 1.6 0.00 0.00 0.00 46 1017.3
20260506194705 23 128 4.8 4.8 0.00 0.00 0.00 45 1017.5
20260506194201 23 67 1.6 8.0 0.00 0.00 0.00 47 1017.5
20260506193658 23 356 1.6 8.0 0.00 0.00 0.00 47 1017.6
20260506193155 23 44 0.0 4.8 0.00 0.00 0.00 47 1017.7
20260506192652 24 349 1.6 1.6 0.00 0.00 0.00 46 1017.8
20260506192148 22 333 1.6 3.2 0.00 0.00 0.00 48 1017.9
20260506191645 23 14 1.6 4.8 0.00 0.00 0.00 47 1018.0
20260506191141 23 8 1.6 4.8 0.00 0.00 0.00 47 1018.0
20260506190639 23 64 0.0 1.6 0.00 0.00 0.00 47 1018.1
20260506190135 22 17 1.6 1.6 0.00 0.00 0.00 49 1018.1
20260506185633 21 264 1.6 4.8 0.00 0.00 0.00 50 1018.3
20260506185129 21 4 0.0 4.8 0.00 0.00 0.00 50 1018.2
20260506184626 21 326 3.2 9.7 0.00 0.00 0.00 50 1018.3
20260506184123 21 344 6.4 9.7 0.00 0.00 0.00 50 1018.4
20260506183620 21 344 0.0 1.6 0.00 0.00 0.00 50 1018.2
20260506183116 22 38 4.8 4.8 0.00 0.00 0.00 50 1018.3
20260506182614 21 357 0.0 3.2 0.00 0.00 0.00 51 1018.5
20260506182110 22 10 4.8 4.8 0.00 0.00 0.00 50 1018.5
20260506181608 21 346 0.0 8.0 0.00 0.00 0.00 51 1018.6
20260506181105 21 1 1.6 1.6 0.00 0.00 0.00 52 1018.6
20260506180602 21 356 4.8 9.7 0.00 0.00 0.00 53 1018.7
20260506180059 21 22 4.8 8.0 0.00 0.00 0.00 51 1018.7
20260506175554 20 359 1.6 3.2 0.00 0.00 0.00 55 1018.9
20260506175051 20 4 1.6 3.2 0.00 0.00 0.00 53 1019.1
20260506174550 20 357 3.2 4.8 0.00 0.00 0.00 52 1018.9
20260506174046 20 27 1.6 3.2 0.00 0.00 0.00 52 1018.8
20260506173544 20 8 1.6 4.8 0.00 0.00 0.00 55 1018.7
20260506173040 20 212 1.6 4.8 0.00 0.00 0.00 54 1018.8
20260506172538 19 351 0.0 3.2 0.00 0.00 0.00 56 1018.9
20260506172034 19 107 1.6 3.2 0.00 0.00 0.00 54 1018.8
20260506171531 19 117 4.8 8.0 0.00 0.00 0.00 55 1018.9
20260506171028 19 359 1.6 3.2 0.00 0.00 0.00 56 1018.9
20260506170526 20 8 0.0 3.2 0.00 0.00 0.00 55 1019.1
20260506170023 18 355 0.0 1.6 0.00 0.00 0.00 55 1018.9
20260506165522 18 354 0.0 3.2 0.00 0.00 0.00 52 1019.2
20260506165018 18 19 0.0 3.2 0.00 0.00 0.00 57 1018.9
20260506164514 18 301 1.6 3.2 0.00 0.00 0.00 58 1018.8
20260506164012 18 345 3.2 3.2 0.00 0.00 0.00 62 1019.1
20260506163508 17 355 1.6 1.6 0.00 0.00 0.00 64 1018.9
20260506163004 17 7 3.2 3.2 0.00 0.00 0.00 66 1019.1
20260506162500 17 316 1.6 3.2 0.00 0.00 0.00 65 1018.9